When you browse on this site, cookies collect data to enhance your experience and personalize the content and advertising you see.
Visit our Privacy Policy to learn more. By continuing to use the site, you agree to this use of cookies and data.
  • In Latvia
  • List of Countries
  • For 7 days
  • Water Temperature
  • Satellite Maps
  • Weather Map
  • Weather Widgets
  • user-avatar
    Login

    Hourly Weather Sapporo

    Today, 19 January, Saturday

    Time Temperature Precipitation Wind Pressure Humidity
    00:00 -8°C° 0.1 mm 5 mps 757 mmHg 82%
    01:00 -8°C° 0 mm 5 mps 757 mmHg 82%
    02:00 -10°C° 0 mm 5 mps 757 mmHg 82%
    03:00 -9°C° 0 mm 4 mps 757 mmHg 84%
    04:00 -9°C° 0 mm 4 mps 757 mmHg 84%
    05:00 -9°C° 0 mm 4 mps 758 mmHg 83%
    06:00 -9°C° 0 mm 4 mps 758 mmHg 82%
    07:00 -9°C° 0 mm 4 mps 758 mmHg 81%
    08:00 -8°C° 0 mm 4 mps 758 mmHg 80%
    09:00 -6°C° 0 mm 3 mps 758 mmHg 73%
    10:00 -5°C° 0 mm 3 mps 758 mmHg 71%
    11:00 -4°C° 0 mm 4 mps 758 mmHg 69%
    12:00 -3°C° 0 mm 4 mps 757 mmHg 67%
    13:00 -4°C° 0 mm 5 mps 757 mmHg 69%
    14:00 -4°C° 0 mm 5 mps 757 mmHg 71%
    15:00 -4°C° 0 mm 3 mps 757 mmHg 74%
    16:00 -5°C° 0 mm 3 mps 757 mmHg 76%
    17:00 -5°C° 0 mm 3 mps 757 mmHg 77%
    18:00 -6°C° 0 mm 3 mps 758 mmHg 79%
    19:00 -6°C° 0 mm 3 mps 757 mmHg 80%
    20:00 -6°C° 0 mm 3 mps 757 mmHg 81%
    21:00 -6°C° 0 mm 3 mps 757 mmHg 81%
    22:00 -5°C° 0 mm 2 mps 757 mmHg 82%
    23:00 -6°C° 0 mm 2 mps 757 mmHg 82%

    Tomorrow, 20 January, Sunday

    Time Temperature Precipitation Wind Pressure Humidity
    00:00 -6°C° 0 mm 2 mps 757 mmHg 83%
    01:00 -6°C° 0 mm 2 mps 757 mmHg 83%
    02:00 -6°C° 0 mm 2 mps 756 mmHg 84%
    03:00 -7°C° 0 mm 2 mps 756 mmHg 84%
    04:00 -7°C° 0 mm 2 mps 755 mmHg 84%
    05:00 -7°C° 0 mm 2 mps 755 mmHg 84%
    06:00 -7°C° 0 mm 2 mps 754 mmHg 85%
    07:00 -6°C° 0 mm 2 mps 753 mmHg 83%
    08:00 -5°C° 0 mm 2 mps 753 mmHg 82%
    09:00 -5°C° 0 mm 2 mps 752 mmHg 81%
    10:00 -4°C° 0 mm 2 mps 751 mmHg 79%
    11:00 -3°C° 0 mm 2 mps 750 mmHg 77%
    12:00 -2°C° 0 mm 2 mps 750 mmHg 76%
    13:00 -2°C° 0.2 mm 2 mps 749 mmHg 80%
    14:00 0°C° 0.2 mm 1 mps 748 mmHg 85%
    15:00 0°C° 0.2 mm 1 mps 748 mmHg 89%
    16:00 -2°C° 0.4 mm 2 mps 747 mmHg 90%
    17:00 -3°C° 0.4 mm 2 mps 747 mmHg 92%
    18:00 -3°C° 0.4 mm 2 mps 746 mmHg 93%
    19:00 -5°C° 0.2 mm 3 mps 746 mmHg 89%
    20:00 -5°C° 0.2 mm 4 mps 745 mmHg 85%
    21:00 -7°C° 0.2 mm 5 mps 745 mmHg 81%
    22:00 -8°C° 0.2 mm 5 mps 745 mmHg 80%
    23:00 -9°C° 0.2 mm 6 mps 745 mmHg 79%

    Day after tomorrow, 21 January, Monday

    Time Temperature Precipitation Wind Pressure Humidity
    00:00 -10°C° 0.2 mm 6 mps 745 mmHg 78%
    01:00 -10°C° 0.1 mm 6 mps 745 mmHg 77%
    02:00 -11°C° 0.1 mm 6 mps 745 mmHg 76%
    03:00 -12°C° 0.1 mm 7 mps 745 mmHg 76%
    04:00 -12°C° 0.1 mm 7 mps 745 mmHg 76%
    05:00 -12°C° 0.1 mm 7 mps 745 mmHg 77%
    06:00 -12°C° 0.1 mm 7 mps 745 mmHg 77%
    07:00 -11°C° 0.6 mm 7 mps 745 mmHg 80%
    08:00 -11°C° 0.6 mm 8 mps 745 mmHg 83%
    09:00 -10°C° 0.6 mm 9 mps 745 mmHg 85%
    10:00 -9°C° 1.3 mm 7 mps 746 mmHg 85%
    11:00 -9°C° 1.3 mm 6 mps 746 mmHg 86%
    12:00 -8°C° 1.3 mm 4 mps 746 mmHg 86%
    13:00 -8°C° 1.2 mm 4 mps 746 mmHg 87%
    14:00 -8°C° 1.2 mm 4 mps 746 mmHg 88%
    15:00 -8°C° 1.2 mm 4 mps 747 mmHg 90%
    16:00 -9°C° 0.5 mm 4 mps 747 mmHg 88%
    17:00 -9°C° 0.5 mm 4 mps 747 mmHg 86%
    18:00 -10°C° 0.5 mm 5 mps 748 mmHg 84%
    19:00 -10°C° 0 mm 4 mps 748 mmHg 83%
    20:00 -11°C° 0 mm 4 mps 748 mmHg 82%
    21:00 -11°C° 0 mm 4 mps 748 mmHg 81%
    22:00 -11°C° 0 mm 4 mps 748 mmHg 82%
    23:00 -10°C° 0 mm 3 mps 748 mmHg 83%

    22 January, Tuesday

    Time Temperature Precipitation Wind Pressure Humidity
    00:00 -12°C° 0 mm 3 mps 748 mmHg 83%
    01:00 -10°C° 0.1 mm 3 mps 748 mmHg 84%
    02:00 -9°C° 0.1 mm 2 mps 748 mmHg 85%
    03:00 -9°C° 0.1 mm 2 mps 748 mmHg 86%
    04:00 -9°C° 0.1 mm 2 mps 748 mmHg 87%
    05:00 -9°C° 0.1 mm 2 mps 748 mmHg 87%
    06:00 -8°C° 0.1 mm 2 mps 748 mmHg 88%
    07:00 -8°C° 0.1 mm 2 mps 749 mmHg 86%
    08:00 -7°C° 0.1 mm 2 mps 749 mmHg 85%
    09:00 -6°C° 0.1 mm 2 mps 749 mmHg 84%
    10:00 -6°C° 0.1 mm 3 mps 749 mmHg 81%
    11:00 -5°C° 0.1 mm 3 mps 749 mmHg 77%
    12:00 -4°C° 0.1 mm 3 mps 749 mmHg 74%
    13:00 -4°C° 0.1 mm 3 mps 749 mmHg 75%
    14:00 -5°C° 0.1 mm 3 mps 749 mmHg 76%
    15:00 -5°C° 0.1 mm 3 mps 750 mmHg 78%
    16:00 -5°C° 0.1 mm 3 mps 750 mmHg 80%
    17:00 -5°C° 0.1 mm 2 mps 751 mmHg 82%
    18:00 -6°C° 0.1 mm 2 mps 751 mmHg 84%
    19:00 -7°C° 0 mm 2 mps 751 mmHg 85%
    20:00 -7°C° 0 mm 2 mps 752 mmHg 86%
    21:00 -7°C° 0 mm 2 mps 752 mmHg 87%
    22:00 -8°C° 0 mm 2 mps 752 mmHg 87%
    23:00 -8°C° 0 mm 2 mps 752 mmHg 87%

    23 January, Wednesday

    Time Temperature Precipitation Wind Pressure Humidity
    00:00 -9°C° 0 mm 2 mps 752 mmHg 88%
    01:00 -9°C° 0 mm 2 mps 752 mmHg 88%
    02:00 -9°C° 0 mm 2 mps 752 mmHg 88%
    03:00 -9°C° 0 mm 2 mps 752 mmHg 87%
    04:00 -9°C° 0.1 mm 2 mps 752 mmHg 87%
    05:00 -9°C° 0.1 mm 2 mps 752 mmHg 87%
    06:00 -9°C° 0.1 mm 2 mps 752 mmHg 86%
    07:00 -8°C° 0 mm 2 mps 752 mmHg 85%
    08:00 -6°C° 0 mm 1 mps 752 mmHg 85%
    09:00 -4°C° 0 mm 1 mps 752 mmHg 84%
    10:00 -5°C° 0 mm 2 mps 752 mmHg 82%
    11:00 -4°C° 0 mm 2 mps 752 mmHg 80%
    12:00 -3°C° 0 mm 2 mps 751 mmHg 77%
    13:00 -3°C° 0 mm 2 mps 751 mmHg 80%
    14:00 -3°C° 0 mm 2 mps 751 mmHg 82%
    15:00 -3°C° 0 mm 2 mps 751 mmHg 84%
    16:00 -4°C° 0.1 mm 2 mps 751 mmHg 86%
    17:00 -5°C° 0.1 mm 2 mps 751 mmHg 88%
    18:00 -6°C° 0.1 mm 2 mps 752 mmHg 89%
    19:00 -7°C° 0 mm 2 mps 752 mmHg 89%
    20:00 -7°C° 0 mm 2 mps 752 mmHg 88%
    21:00 -7°C° 0 mm 2 mps 753 mmHg 87%
    22:00 -7°C° 0 mm 2 mps 753 mmHg 88%
    23:00 -7°C° 0 mm 2 mps 753 mmHg 88%

    24 January, Thursday

    Time Temperature Precipitation Wind Pressure Humidity
    00:00 -8°C° 0 mm 2 mps 754 mmHg 88%
    01:00 -8°C° 0 mm 2 mps 754 mmHg 87%
    02:00 -9°C° 0 mm 3 mps 754 mmHg 86%
    03:00 -9°C° 0 mm 3 mps 754 mmHg 85%
    04:00 -9°C° 0 mm 3 mps 754 mmHg 86%
    05:00 -8°C° 0 mm 2 mps 754 mmHg 87%
    06:00 -8°C° 0 mm 2 mps 755 mmHg 88%
    07:00 -8°C° 0 mm 3 mps 755 mmHg 87%
    08:00 -8°C° 0 mm 3 mps 756 mmHg 86%
    09:00 -7°C° 0 mm 3 mps 756 mmHg 86%
    10:00 -5°C° 0.1 mm 3 mps 756 mmHg 84%
    11:00 -4°C° 0.1 mm 4 mps 756 mmHg 83%
    12:00 -3°C° 0.1 mm 4 mps 756 mmHg 81%
    13:00 -3°C° 0.1 mm 4 mps 756 mmHg 81%
    14:00 -3°C° 0.1 mm 4 mps 757 mmHg 81%
    15:00 -2°C° 0.1 mm 4 mps 757 mmHg 81%
    16:00 -3°C° 0.1 mm 4 mps 757 mmHg 82%
    17:00 -4°C° 0.1 mm 3 mps 758 mmHg 84%
    18:00 -5°C° 0.1 mm 3 mps 759 mmHg 85%
    19:00 -5°C° 0.2 mm 3 mps 759 mmHg 86%
    20:00 -4°C° 0.2 mm 2 mps 759 mmHg 87%
    21:00 -4°C° 0.2 mm 2 mps 759 mmHg 88%
    22:00 -4°C° 0.2 mm 2 mps 759 mmHg 88%
    23:00 -4°C° 0.2 mm 2 mps 759 mmHg 88%
    Show more